Miami Beach, Florida, United States (33109)
Lat: 25.79N, Lon: 80.13W
Wx Zone: FLZ173
Local Info
Past Weather Observations for Friday, July 29, 2016

NOTE: This archive is for the closest National Weather Service station to Miami Beach. Information may differ from the station used for current weather conditions.

Click here for Long-term Archive

Time Weather Temperature Dewpoint Humidity Pressure Winds Precip Visibility
23:53
Partly Cloudy
82°F / 28°C 72°F / 22°C 70% 30.06 in
(1018 mb)
Calm - 10SM
22:53
Clear
82°F / 28°C 70°F / 21°C 66% 30.06 in
(1018 mb)
WNW 5.8 mph
(WNW 9 kph)
- 10SM
21:53
Mostly Cloudy
84°F / 29°C 72°F / 22°C 66% 30.06 in
(1018 mb)
WNW 3.5 mph
(WNW 6 kph)
- 10SM
20:53
Mostly Cloudy
84°F / 29°C 72°F / 22°C 66% 30.06 in
(1018 mb)
Calm - 10SM
19:53
Mostly Cloudy
84°F / 29°C 72°F / 22°C 66% 30.04 in
(1017 mb)
NW 4.6 mph
(NW 7 kph)
- 10SM
18:53
Mostly Cloudy
84°F / 29°C 75°F / 24°C 74% 30.04 in
(1017 mb)
N 5.8 mph
(N 9 kph)
- 10SM
17:53
Mostly Cloudy
88°F / 31°C 75°F / 24°C 66% 30.04 in
(1017 mb)
SE 8.1 mph
(SE 13 kph)
- 10SM
16:53
Mostly Cloudy
88°F / 31°C 75°F / 24°C 66% 30.04 in
(1017 mb)
SE 6.9 mph
(SE 11 kph)
- 10SM
15:53
Mostly Cloudy
90°F / 32°C 75°F / 24°C 63% 30.04 in
(1017 mb)
SE 9.2 mph
(SE 15 kph)
- 10SM
14:53
Mostly Cloudy
90°F / 32°C 75°F / 24°C 63% 30.04 in
(1017 mb)
SE 9.2 mph
(SE 15 kph)
- 10SM
13:53
Mostly Cloudy
Partly Cloudy
88°F / 31°C 75°F / 24°C 66% 30.06 in
(1018 mb)
Variable 5.8 mph
(Variable 9 kph)
- 10SM
12:53
Partly Cloudy
88°F / 31°C 75°F / 24°C 66% 30.06 in
(1018 mb)
SE 5.8 mph
(SE 9 kph)
0.00 in
(0.00 mm)
10SM
11:53
Mostly Cloudy
Light Rain
82°F / 28°C 73°F / 23°C 74% 30.06 in
(1018 mb)
ENE 5.8 mph
(ENE 9 kph)
0.01 in
(0.25 mm)
7SM
10:53
Mostly Cloudy
Light Rain
84°F / 29°C 77°F / 25°C 79% 30.09 in
(1019 mb)
S 5.8 mph
(S 9 kph)
0.06 in
(1.52 mm)
7SM
09:53
Mostly Cloudy
Partly Cloudy
88°F / 31°C 75°F / 24°C 66% 30.09 in
(1019 mb)
Variable 4.6 mph
(Variable 7 kph)
- 10SM
08:53
Partly Cloudy
86°F / 30°C 77°F / 25°C 75% 30.09 in
(1019 mb)
ESE 3.5 mph
(ESE 6 kph)
- 10SM
07:53
Partly Cloudy
86°F / 30°C 75°F / 24°C 70% 30.06 in
(1018 mb)
Calm - 10SM
06:53
Partly Cloudy
84°F / 29°C 79°F / 26°C 84% 30.06 in
(1018 mb)
Calm - 10SM
05:53
Partly Cloudy
82°F / 28°C 79°F / 26°C 89% 30.04 in
(1017 mb)
Calm - 10SM
04:53
Partly Cloudy
82°F / 28°C 77°F / 25°C 84% 30.04 in
(1017 mb)
NNW 3.5 mph
(NNW 6 kph)
- 10SM
03:53
Partly Cloudy
82°F / 28°C 77°F / 25°C 84% 30.04 in
(1017 mb)
W 3.5 mph
(W 6 kph)
- 10SM
02:53
Partly Cloudy
82°F / 28°C 79°F / 26°C 89% 30.04 in
(1017 mb)
Calm - 10SM
01:53
Partly Cloudy
82°F / 28°C 77°F / 25°C 84% 30.04 in
(1017 mb)
Calm - 10SM
00:53
Partly Cloudy
84°F / 29°C 77°F / 25°C 79% 30.04 in
(1017 mb)
SE 3.5 mph
(SE 6 kph)
- 10SM
Time Weather Temperature Dewpoint Humidity Pressure Winds Precip Visibility


Weather for websites

WeatherForYou.com, LLC is not responsible for any damages or problems caused by this service. Current weather conditions are obtained from the closest station including government and personal stations which may have varying degrees of accuracy. Weather forecasts are derived from the NOAA NDFD. Like all things, this site belongs to Jesus Christ... He just trusts us to maintain it. If you have any questions or comments email webmaster@weatherforyou.com

Copyright © 2016, WeatherForYou.com LLC. All rights reserved.